Location: Chippewa Lake
(41.0698°N, 81.9010°W)
Time: 21:42:32
(UTC+00:00)

Cosmos 1536 Rocket - Pass Details

Date: 09 May 2021
Orbit: 605 x 632 km, 82.5° (Epoch: 16 June)

Event Time Altitude Azimuth Distance (km) Brightness Sun altitude
Exits shadow 08:30:24 24° 182° (S) 1,284 4.8 -17.3°
Maximum altitude 08:33:01 83° 97° (E) 628 3.6 -16.9°
Drops below altitude 10° 08:37:27 10° 9° (N) 2,000 6.9 -16.3°
Sets 08:39:42 0° 9° (N) 2,915 7.9 -16.0°
